Time,TemperatureF,DewpointF,PressureIn,WindDirection,WindDirectionDegrees,WindSpeedMPH,WindSpeedGustMPH,Humidity,HourlyPrecipIn,Conditions,Clouds,dailyrainin,SoftwareType,DateUTC
2013-01-16 00:00:00,29.7,26.5,29.98,SE,142,1.0,7.0,88,0.00,CLR,CLR,0.00,WeatherDisplay:10.37,2013-01-16 05:00:00,
2013-01-16 00:03:00,29.7,26.5,29.97,SE,135,5.8,5.8,88,0.00,CLR,,0.00,WeatherDisplay:10.37,2013-01-16 05:03:00,
2013-01-16 00:08:00,29.5,26.4,29.96,SE,135,7.0,7.0,88,0.00,CLR,,0.00,WeatherDisplay:10.37,2013-01-16 05:08:00,
2013-01-16 00:11:00,29.5,26.4,29.96,SE,135,4.3,6.9,88,0.00,CLR,,0.00,WeatherDisplay:10.37,2013-01-16 05:11:00,
2013-01-16 00:16:00,29.3,26.2,29.96,SE,135,5.2,5.8,88,0.00,CLR,,0.00,WeatherDisplay:10.37,2013-01-16 05:16:00,
2013-01-16 00:21:00,29.3,26.2,29.97,SE,135,5.5,6.9,88,0.00,CLR,,0.00,WeatherDisplay:10.37,2013-01-16 05:21:00,
2013-01-16 00:26:00,29.3,26.2,29.97,SSE,158,7.0,7.0,88,0.00,CLR,,0.00,WeatherDisplay:10.37,2013-01-16 05:26:00,
2013-01-16 00:31:00,29.5,26.4,29.97,SSE,158,4.0,4.6,88,0.00,CLR,,0.00,WeatherDisplay:10.37,2013-01-16 05:31:00,
2013-01-16 00:36:00,29.3,26.2,29.98,SE,135,5.2,5.8,88,0.00,CLR,,0.00,WeatherDisplay:10.37,2013-01-16 05:36:00,
2013-01-16 00:41:00,29.3,26.2,29.97,South,180,2.4,2.4,88,0.00,CLR,,0.00,WeatherDisplay:10.37,2013-01-16 05:41:00,
2013-01-16 00:46:00,29.3,26.2,29.97,SE,135,6.7,6.9,88,0.00,CLR,,0.00,WeatherDisplay:10.37,2013-01-16 05:46:00,
2013-01-16 00:52:00,29.3,26.2,29.97,South,180,2.4,5.8,88,0.00,CLR,,0.00,WeatherDisplay:10.37,2013-01-16 05:52:00,
2013-01-16 00:57:00,29.3,26.2,29.97,South,180,5.8,5.8,88,0.00,CLR,,0.00,WeatherDisplay:10.37,2013-01-16 05:57:00,
2013-01-16 01:02:00,29.1,26.0,29.95,SE,135,7.0,9.2,88,0.00,CLR,,0.00,WeatherDisplay:10.37,2013-01-16 06:02:00,
2013-01-16 01:07:00,29.1,26.3,29.94,SSE,158,8.1,8.1,89,0.00,CLR,,0.00,WeatherDisplay:10.37,2013-01-16 06:07:00,
2013-01-16 01:12:00,29.1,26.3,29.94,ESE,112,4.9,11.5,89,0.00,CLR,,0.00,WeatherDisplay:10.37,2013-01-16 06:12:00,
2013-01-16 01:17:00,29.3,26.5,29.94,ESE,112,3.4,4.6,89,0.00,CLR,,0.00,WeatherDisplay:10.37,2013-01-16 06:17:00,
2013-01-16 01:22:00,29.5,26.6,29.95,SSE,158,1.5,4.6,89,0.00,CLR,,0.00,WeatherDisplay:10.37,2013-01-16 06:22:00,
2013-01-16 01:27:00,29.5,26.6,29.95,SE,135,6.1,6.1,89,0.00,CLR,,0.00,WeatherDisplay:10.37,2013-01-16 06:27:00,
2013-01-16 01:32:00,29.7,26.8,29.95,ESE,112,6.1,6.1,89,0.00,CLR,,0.00,WeatherDisplay:10.37,2013-01-16 06:32:00,
2013-01-16 01:37:00,29.5,26.6,29.94,SE,135,3.4,5.8,89,0.00,CLR,,0.00,WeatherDisplay:10.37,2013-01-16 06:37:00,
2013-01-16 01:42:00,29.5,26.6,29.94,SSE,158,4.6,5.8,89,0.00,CLR,,0.00,WeatherDisplay:10.37,2013-01-16 06:42:00,
2013-01-16 01:47:00,29.5,26.6,29.93,SE,135,4.9,5.8,89,0.00,CLR,,0.00,WeatherDisplay:10.37,2013-01-16 06:47:00,
2013-01-16 01:52:00,29.5,26.6,29.94,SE,135,4.9,5.8,89,0.00,CLR,,0.00,WeatherDisplay:10.37,2013-01-16 06:52:00,
2013-01-16 01:57:00,29.5,26.6,29.93,ESE,112,8.1,8.1,89,0.00,CLR,,0.00,WeatherDisplay:10.37,2013-01-16 06:57:00,
2013-01-16 02:02:00,29.5,26.6,29.94,South,180,6.1,8.1,89,0.00,CLR,,0.00,WeatherDisplay:10.37,2013-01-16 07:02:00,
2013-01-16 02:07:00,29.5,26.6,29.94,SE,135,5.2,5.8,89,0.00,CLR,,0.00,WeatherDisplay:10.37,2013-01-16 07:07:00,
2013-01-16 02:12:00,29.7,26.8,29.93,SSW,202,6.4,6.4,89,0.00,CLR,,0.00,WeatherDisplay:10.37,2013-01-16 07:12:00,
2013-01-16 02:17:00,29.5,26.6,29.92,ESE,112,0.6,5.8,89,0.00,CLR,,0.00,WeatherDisplay:10.37,2013-01-16 07:17:00,
2013-01-16 02:22:00,29.5,26.6,29.92,SSE,158,5.2,6.9,89,0.00,CLR,,0.00,WeatherDisplay:10.37,2013-01-16 07:22:00,
2013-01-16 02:27:00,29.5,26.6,29.94,SSW,202,6.1,6.9,89,0.00,CLR,,0.00,WeatherDisplay:10.37,2013-01-16 07:27:00,
2013-01-16 02:32:00,29.5,26.6,29.95,SSE,158,5.2,9.2,89,0.00,CLR,,0.00,WeatherDisplay:10.37,2013-01-16 07:32:00,
2013-01-16 02:37:00,29.3,26.5,29.95,SSE,158,5.8,6.9,89,0.00,CLR,,0.00,WeatherDisplay:10.37,2013-01-16 07:37:00,
2013-01-16 02:42:00,29.1,26.6,29.95,SE,135,3.1,3.5,90,0.00,CLR,,0.00,WeatherDisplay:10.37,2013-01-16 07:42:00,
2013-01-16 02:47:00,29.3,26.7,29.94,SSE,158,4.9,5.8,90,0.00,CLR,,0.00,WeatherDisplay:10.37,2013-01-16 07:47:00,
2013-01-16 02:52:00,29.3,26.7,29.93,SSE,158,5.8,5.8,90,0.00,CLR,,0.00,WeatherDisplay:10.37,2013-01-16 07:52:00,
2013-01-16 02:57:00,29.3,26.7,29.92,ESE,112,4.3,4.6,90,0.00,CLR,,0.00,WeatherDisplay:10.37,2013-01-16 07:57:00,
2013-01-16 03:02:00,29.1,26.6,29.92,South,180,4.3,6.9,90,0.00,CLR,,0.00,WeatherDisplay:10.37,2013-01-16 08:02:00,
2013-01-16 03:07:00,29.1,26.6,29.91,SE,135,6.4,6.9,90,0.00,CLR,,0.00,WeatherDisplay:10.37,2013-01-16 08:07:00,
2013-01-16 03:12:00,29.1,26.6,29.91,SE,135,4.9,4.9,90,0.00,CLR,,0.00,WeatherDisplay:10.37,2013-01-16 08:12:00,
2013-01-16 03:17:00,29.1,26.6,29.91,South,180,4.3,5.8,90,0.00,CLR,,0.00,WeatherDisplay:10.37,2013-01-16 08:17:00,
2013-01-16 03:22:00,29.1,26.6,29.92,SE,135,5.2,5.2,90,0.00,CLR,,0.00,WeatherDisplay:10.37,2013-01-16 08:22:00,
2013-01-16 03:27:00,29.1,26.6,29.92,SE,135,1.2,4.6,90,0.00,CLR,,0.00,WeatherDisplay:10.37,2013-01-16 08:27:00,
2013-01-16 03:32:00,29.3,26.7,29.92,SE,135,1.5,4.6,90,0.00,CLR,,0.00,WeatherDisplay:10.37,2013-01-16 08:32:00,
2013-01-16 03:37:00,29.3,26.7,29.91,SE,135,3.7,3.7,90,0.00,CLR,,0.00,WeatherDisplay:10.37,2013-01-16 08:37:00,
2013-01-16 03:42:00,29.3,26.7,29.90,ESE,112,2.8,4.6,90,0.00,CLR,,0.00,WeatherDisplay:10.37,2013-01-16 08:42:00,
2013-01-16 03:47:00,29.3,26.7,29.91,SE,135,0.6,2.3,90,0.00,CLR,,0.00,WeatherDisplay:10.37,2013-01-16 08:47:00,
2013-01-16 03:52:00,29.3,26.7,29.91,South,180,0.0,1.1,90,0.00,CLR,,0.00,WeatherDisplay:10.37,2013-01-16 08:52:00,
2013-01-16 03:57:00,29.3,26.7,29.90,SE,135,2.5,2.5,90,0.00,CLR,,0.00,WeatherDisplay:10.37,2013-01-16 08:57:00,
2013-01-16 04:02:00,29.3,26.7,29.91,ESE,112,4.0,4.0,90,0.00,CLR,,0.00,WeatherDisplay:10.37,2013-01-16 09:02:00,
2013-01-16 04:07:00,29.3,26.7,29.90,SE,135,1.8,2.3,90,0.00,CLR,,0.00,WeatherDisplay:10.37,2013-01-16 09:07:00,
2013-01-16 04:12:00,29.3,26.7,29.91,SE,135,2.8,5.8,90,0.00,CLR,,0.00,WeatherDisplay:10.37,2013-01-16 09:12:00,
2013-01-16 04:17:00,29.3,26.7,29.90,SE,135,3.4,3.4,90,0.00,CLR,,0.00,WeatherDisplay:10.37,2013-01-16 09:17:00,
2013-01-16 04:22:00,29.3,26.7,29.90,South,180,5.2,5.2,90,0.00,CLR,,0.00,WeatherDisplay:10.37,2013-01-16 09:22:00,
2013-01-16 04:27:00,29.1,26.6,29.90,ESE,112,5.2,5.8,90,0.00,CLR,,0.00,WeatherDisplay:10.37,2013-01-16 09:27:00,
2013-01-16 04:32:00,29.1,26.6,29.89,SSE,158,6.1,8.1,90,0.00,CLR,,0.00,WeatherDisplay:10.37,2013-01-16 09:32:00,
2013-01-16 04:37:00,29.1,26.6,29.89,SE,135,6.1,6.1,90,0.00,CLR,,0.00,WeatherDisplay:10.37,2013-01-16 09:37:00,
2013-01-16 04:42:00,29.1,26.6,29.90,SSE,158,4.0,4.6,90,0.00,CLR,,0.00,WeatherDisplay:10.37,2013-01-16 09:42:00,
2013-01-16 04:47:00,29.3,26.7,29.90,SSE,158,4.6,4.6,90,0.00,CLR,,0.00,WeatherDisplay:10.37,2013-01-16 09:47:00,
2013-01-16 04:52:00,29.3,27.0,29.90,SE,135,1.5,1.5,91,0.00,CLR,,0.00,WeatherDisplay:10.37,2013-01-16 09:52:00,
2013-01-16 04:57:00,29.5,27.2,29.90,South,180,6.4,6.9,91,0.00,CLR,,0.00,WeatherDisplay:10.37,2013-01-16 09:57:00,
2013-01-16 05:02:00,29.5,27.2,29.89,SE,135,7.0,7.0,91,0.00,CLR,,0.00,WeatherDisplay:10.37,2013-01-16 10:02:00,
2013-01-16 05:07:00,29.7,27.4,29.89,SSE,158,5.2,8.1,91,0.00,CLR,,0.00,WeatherDisplay:10.37,2013-01-16 10:07:00,
2013-01-16 05:12:00,29.7,27.4,29.90,SSE,158,5.2,5.8,91,0.00,CLR,,0.00,WeatherDisplay:10.37,2013-01-16 10:12:00,
2013-01-16 05:17:00,29.7,27.4,29.90,SE,135,3.7,4.6,91,0.00,CLR,,0.00,WeatherDisplay:10.37,2013-01-16 10:17:00,
2013-01-16 05:22:00,29.8,27.5,29.89,SSE,158,5.8,5.8,91,0.00,CLR,,0.00,WeatherDisplay:10.37,2013-01-16 10:22:00,
2013-01-16 05:27:00,29.8,27.5,29.88,South,180,7.3,8.1,91,0.00,CLR,,0.00,WeatherDisplay:10.37,2013-01-16 10:27:00,
2013-01-16 05:32:00,30.0,27.7,29.87,SSE,158,8.7,9.2,91,0.00,CLR,,0.00,WeatherDisplay:10.37,2013-01-16 10:32:00,
2013-01-16 05:37:00,30.0,27.7,29.86,SE,135,9.0,12.7,91,0.00,CLR,,0.00,WeatherDisplay:10.37,2013-01-16 10:37:00,
2013-01-16 05:42:00,30.0,27.7,29.86,South,180,9.6,9.6,91,0.00,CLR,,0.00,WeatherDisplay:10.37,2013-01-16 10:42:00,
2013-01-16 05:47:00,30.2,27.9,29.86,SSE,158,5.2,9.2,91,0.00,CLR,,0.00,WeatherDisplay:10.37,2013-01-16 10:47:00,
2013-01-16 05:52:00,30.2,27.9,29.87,South,180,6.4,8.1,91,0.00,CLR,,0.00,WeatherDisplay:10.37,2013-01-16 10:52:00,
2013-01-16 05:57:00,30.2,27.9,29.86,SE,135,5.2,5.8,91,0.00,CLR,,0.00,WeatherDisplay:10.37,2013-01-16 10:57:00,
2013-01-16 06:02:00,30.4,28.1,29.85,SE,135,7.6,9.2,91,0.00,CLR,,0.00,WeatherDisplay:10.37,2013-01-16 11:02:00,
2013-01-16 06:07:00,30.4,28.1,29.86,SSE,158,5.5,5.8,91,0.00,CLR,,0.00,WeatherDisplay:10.37,2013-01-16 11:07:00,
2013-01-16 06:12:00,30.4,28.1,29.86,ESE,112,4.6,8.1,91,0.00,CLR,,0.00,WeatherDisplay:10.37,2013-01-16 11:12:00,
2013-01-16 06:17:00,30.4,28.1,29.86,SSE,158,6.1,6.1,91,0.00,CLR,,0.00,WeatherDisplay:10.37,2013-01-16 11:17:00,
2013-01-16 06:22:00,30.2,27.9,29.84,SE,135,6.4,6.9,91,0.00,CLR,,0.00,WeatherDisplay:10.37,2013-01-16 11:22:00,
2013-01-16 06:27:00,30.2,27.9,29.84,SSE,158,5.2,6.9,91,0.00,CLR,,0.00,WeatherDisplay:10.37,2013-01-16 11:27:00,
2013-01-16 06:32:00,30.0,27.7,29.84,SSE,158,7.0,7.0,91,0.00,CLR,,0.00,WeatherDisplay:10.37,2013-01-16 11:32:00,
2013-01-16 06:37:00,30.0,27.7,29.84,South,180,7.0,10.4,91,0.00,CLR,,0.00,WeatherDisplay:10.37,2013-01-16 11:37:00,
2013-01-16 06:42:00,30.0,27.7,29.83,SSE,158,6.1,10.4,91,0.00,CLR,,0.00,WeatherDisplay:10.37,2013-01-16 11:42:00,
2013-01-16 06:48:00,29.8,27.5,29.84,SE,135,7.8,9.2,91,0.00,CLR,,0.00,WeatherDisplay:10.37,2013-01-16 11:48:00,
2013-01-16 06:53:00,30.0,27.7,29.84,ESE,112,6.7,6.9,91,0.00,CLR,,0.00,WeatherDisplay:10.37,2013-01-16 11:53:00,
2013-01-16 06:58:00,30.0,27.7,29.83,SE,135,4.0,5.8,91,0.00,CLR,,0.00,WeatherDisplay:10.37,2013-01-16 11:58:00,
2013-01-16 07:03:00,29.8,27.5,29.83,ESE,112,3.1,9.2,91,0.00,CLR,,0.00,WeatherDisplay:10.37,2013-01-16 12:03:00,
2013-01-16 07:08:00,29.8,27.5,29.82,SE,135,8.7,8.7,91,0.00,CLR,,0.00,WeatherDisplay:10.37,2013-01-16 12:08:00,
2013-01-16 07:13:00,29.8,27.5,29.82,SE,135,7.0,7.0,91,0.00,CLR,,0.00,WeatherDisplay:10.37,2013-01-16 12:13:00,
2013-01-16 07:18:00,29.8,27.5,29.82,SSE,158,7.8,7.8,91,0.00,CLR,,0.00,WeatherDisplay:10.37,2013-01-16 12:18:00,
2013-01-16 07:23:00,29.8,27.5,29.81,SSE,158,6.4,10.4,91,0.00,CLR,,0.00,WeatherDisplay:10.37,2013-01-16 12:23:00,
2013-01-16 07:28:00,29.7,27.4,29.82,ESE,112,7.0,7.0,91,0.00,CLR,,0.00,WeatherDisplay:10.37,2013-01-16 12:28:00,
2013-01-16 07:33:00,29.7,27.6,29.84,South,180,0.3,4.6,92,0.00,CLR,,0.00,WeatherDisplay:10.37,2013-01-16 12:33:00,
2013-01-16 07:38:00,29.7,27.6,29.85,SE,135,2.5,4.6,92,0.00,CLR,,0.00,WeatherDisplay:10.37,2013-01-16 12:38:00,
2013-01-16 07:43:00,29.8,27.8,29.86,WSW,248,2.5,2.5,92,0.00,CLR,,0.00,WeatherDisplay:10.37,2013-01-16 12:43:00,
2013-01-16 07:48:00,29.8,27.8,29.84,SSE,158,5.5,5.8,92,0.00,CLR,,0.00,WeatherDisplay:10.37,2013-01-16 12:48:00,
2013-01-16 07:53:00,29.8,27.8,29.83,SSE,158,8.1,8.1,92,0.00,CLR,,0.00,WeatherDisplay:10.37,2013-01-16 12:53:00,
2013-01-16 07:58:00,29.8,27.8,29.83,SSE,158,8.1,9.2,92,0.00,CLR,,0.00,WeatherDisplay:10.37,2013-01-16 12:58:00,
2013-01-16 08:03:00,29.8,27.8,29.84,SSE,158,0.3,4.6,92,0.00,CLR,,0.00,WeatherDisplay:10.37,2013-01-16 13:03:00,
2013-01-16 08:08:00,29.8,27.8,29.84,SE,135,1.2,2.3,92,0.00,CLR,,0.00,WeatherDisplay:10.37,2013-01-16 13:08:00,
2013-01-16 08:13:00,29.8,27.8,29.84,South,180,1.2,1.2,92,0.00,CLR,,0.00,WeatherDisplay:10.37,2013-01-16 13:13:00,
2013-01-16 08:18:00,30.0,28.0,29.86,SSE,158,2.4,3.5,92,0.00,CLR,,0.00,WeatherDisplay:10.37,2013-01-16 13:18:00,
2013-01-16 08:23:00,30.0,28.0,29.86,SSE,158,5.8,5.8,92,0.00,CLR,,0.00,WeatherDisplay:10.37,2013-01-16 13:23:00,
2013-01-16 08:28:00,30.2,28.2,29.86,SSW,202,3.1,4.6,92,0.00,CLR,,0.00,WeatherDisplay:10.37,2013-01-16 13:28:00,
2013-01-16 08:33:00,30.2,28.2,29.84,SSE,158,4.6,5.8,92,0.00,CLR,,0.00,WeatherDisplay:10.37,2013-01-16 13:33:00,
2013-01-16 08:38:00,30.2,28.2,29.83,SE,135,7.3,7.3,92,0.00,CLR,,0.00,WeatherDisplay:10.37,2013-01-16 13:38:00,
2013-01-16 08:43:00,30.4,28.3,29.83,SE,135,6.1,6.9,92,0.00,CLR,,0.00,WeatherDisplay:10.37,2013-01-16 13:43:00,
2013-01-16 08:48:00,30.4,28.3,29.82,SSE,158,9.0,9.0,92,0.00,CLR,,0.00,WeatherDisplay:10.37,2013-01-16 13:48:00,
2013-01-16 08:53:00,30.4,28.3,29.81,SE,135,7.6,8.1,92,0.00,CLR,,0.00,WeatherDisplay:10.37,2013-01-16 13:53:00,
2013-01-16 08:58:00,30.6,28.5,29.80,SE,135,5.2,5.8,92,0.00,CLR,,0.00,WeatherDisplay:10.37,2013-01-16 13:58:00,
2013-01-16 09:03:00,30.6,28.5,29.79,South,180,9.9,9.9,92,0.00,CLR,,0.00,WeatherDisplay:10.37,2013-01-16 14:03:00,
2013-01-16 09:08:00,30.6,28.8,29.82,South,180,0.3,8.1,93,0.00,CLR,,0.00,WeatherDisplay:10.37,2013-01-16 14:08:00,
2013-01-16 09:13:00,30.7,29.0,29.86,WNW,292,3.4,3.4,93,0.00,CLR,,0.00,WeatherDisplay:10.37,2013-01-16 14:13:00,
2013-01-16 09:18:00,30.7,29.0,29.88,WNW,292,1.5,3.5,93,0.00,CLR,,0.00,WeatherDisplay:10.37,2013-01-16 14:18:00,
2013-01-16 09:23:00,30.7,29.0,29.88,West,270,1.2,1.2,93,0.00,CLR,,0.00,WeatherDisplay:10.37,2013-01-16 14:23:00,
2013-01-16 09:28:00,30.9,29.1,29.84,ESE,112,1.8,1.8,93,0.00,CLR,,0.00,WeatherDisplay:10.37,2013-01-16 14:28:00,
2013-01-16 09:33:00,30.9,29.1,29.82,SE,135,2.4,2.4,93,0.00,CLR,,0.00,WeatherDisplay:10.37,2013-01-16 14:33:00,
2013-01-16 09:38:00,30.9,29.1,29.84,SE,135,1.2,2.3,93,0.00,CLR,,0.00,WeatherDisplay:10.37,2013-01-16 14:38:00,
2013-01-16 09:43:00,31.1,29.0,29.85,SSE,158,1.5,2.3,92,0.00,CLR,,0.00,WeatherDisplay:10.37,2013-01-16 14:43:00,
2013-01-16 09:48:00,31.3,29.2,29.82,SE,135,4.6,4.6,92,0.00,CLR,,0.00,WeatherDisplay:10.37,2013-01-16 14:48:00,
2013-01-16 09:53:00,31.3,29.2,29.83,WSW,248,1.5,2.3,92,0.00,CLR,,0.00,WeatherDisplay:10.37,2013-01-16 14:53:00,
2013-01-16 09:58:00,31.3,29.2,29.82,ESE,112,1.8,2.3,92,0.00,CLR,,0.00,WeatherDisplay:10.37,2013-01-16 14:58:00,
2013-01-16 10:03:00,31.3,29.2,29.83,SSE,158,0.9,2.3,92,0.00,CLR,,0.00,WeatherDisplay:10.37,2013-01-16 15:03:00,
2013-01-16 10:08:00,31.5,29.4,29.82,ESE,112,2.4,2.4,92,0.00,CLR,,0.00,WeatherDisplay:10.37,2013-01-16 15:08:00,
2013-01-16 10:13:00,31.6,29.6,29.82,East,90,0.0,1.1,92,0.00,CLR,,0.00,WeatherDisplay:10.37,2013-01-16 15:13:00,
2013-01-16 10:18:00,31.6,29.6,29.80,East,90,0.9,4.6,92,0.00,CLR,,0.00,WeatherDisplay:10.37,2013-01-16 15:18:00,
2013-01-16 10:23:00,31.6,29.6,29.80,SE,135,2.8,2.8,92,0.00,CLR,,0.00,WeatherDisplay:10.37,2013-01-16 15:23:00,
2013-01-16 10:28:00,31.6,29.6,29.78,SSE,158,2.8,2.8,92,0.00,CLR,,0.00,WeatherDisplay:10.37,2013-01-16 15:28:00,
2013-01-16 10:33:00,31.6,29.6,29.79,SE,135,0.6,2.3,92,0.00,CLR,,0.00,WeatherDisplay:10.37,2013-01-16 15:33:00,
2013-01-16 10:38:00,31.8,29.8,29.80,SE,135,2.4,2.4,92,0.00,CLR,,0.00,WeatherDisplay:10.37,2013-01-16 15:38:00,
2013-01-16 10:43:00,32.0,29.9,29.76,SE,135,4.3,4.6,92,0.00,CLR,,0.00,WeatherDisplay:10.37,2013-01-16 15:43:00,
2013-01-16 10:48:00,32.0,29.9,29.80,WSW,248,0.9,1.1,92,0.00,CLR,,0.00,WeatherDisplay:10.37,2013-01-16 15:48:00,
2013-01-16 10:53:00,32.2,30.1,29.77,SE,135,1.2,1.2,92,0.00,CLR,,0.00,WeatherDisplay:10.37,2013-01-16 15:53:00,
2013-01-16 10:58:00,32.4,30.3,29.76,ESE,112,2.1,2.3,92,0.00,CLR,,0.00,WeatherDisplay:10.37,2013-01-16 15:58:00,
2013-01-16 11:03:00,32.5,30.5,29.74,SE,135,0.6,3.5,92,0.00,CLR,,0.00,WeatherDisplay:10.37,2013-01-16 16:03:00,
2013-01-16 11:08:00,32.7,30.7,29.76,SE,135,0.9,1.1,92,0.00,CLR,,0.00,WeatherDisplay:10.37,2013-01-16 16:08:00,
2013-01-16 11:13:00,32.7,30.7,29.77,SE,135,0.6,1.1,92,0.00,CLR,,0.00,WeatherDisplay:10.37,2013-01-16 16:13:00,
2013-01-16 11:18:00,32.9,30.8,29.72,ESE,112,2.5,4.6,92,0.00,CLR,,0.00,WeatherDisplay:10.37,2013-01-16 16:18:00,
2013-01-16 11:23:00,33.1,31.0,29.73,SSE,158,0.0,0.0,92,0.00,CLR,,0.00,WeatherDisplay:10.37,2013-01-16 16:23:00,
2013-01-16 11:28:00,33.1,31.0,29.76,NW,315,0.6,1.1,92,0.00,CLR,,0.00,WeatherDisplay:10.37,2013-01-16 16:28:00,
2013-01-16 11:33:00,33.1,31.0,29.72,NW,315,0.0,0.0,92,0.00,CLR,,0.00,WeatherDisplay:10.37,2013-01-16 16:33:00,
2013-01-16 11:38:00,33.1,31.0,29.72,NW,315,0.0,0.0,92,0.00,CLR,,0.00,WeatherDisplay:10.37,2013-01-16 16:38:00,
2013-01-16 11:43:00,32.9,30.8,29.76,NW,315,0.0,0.0,92,0.00,CLR,,0.00,WeatherDisplay:10.37,2013-01-16 16:43:00,
2013-01-16 11:48:00,33.1,31.0,29.76,NW,315,1.2,1.2,92,0.00,CLR,,0.00,WeatherDisplay:10.37,2013-01-16 16:48:00,
2013-01-16 11:53:00,32.9,30.8,29.75,NW,315,0.9,1.1,92,0.00,CLR,,0.00,WeatherDisplay:10.37,2013-01-16 16:53:00,
2013-01-16 11:58:00,32.7,30.7,29.77,NW,315,1.8,2.3,92,0.00,CLR,,0.00,WeatherDisplay:10.37,2013-01-16 16:58:00,
2013-01-16 12:03:00,32.7,30.7,29.77,NW,315,2.1,2.1,92,0.00,CLR,,0.00,WeatherDisplay:10.37,2013-01-16 17:03:00,
2013-01-16 12:08:00,32.5,30.5,29.77,NNW,338,0.9,3.5,92,0.00,CLR,,0.00,WeatherDisplay:10.37,2013-01-16 17:08:00,
2013-01-16 12:13:00,32.5,30.7,29.77,NW,315,0.3,1.1,93,0.00,CLR,,0.00,WeatherDisplay:10.37,2013-01-16 17:13:00,
2013-01-16 12:18:00,32.5,30.7,29.74,NW,315,0.6,1.1,93,0.00,CLR,,0.00,WeatherDisplay:10.37,2013-01-16 17:18:00,
2013-01-16 12:23:00,32.4,30.6,29.74,NW,315,1.5,1.5,93,0.00,CLR,,0.00,WeatherDisplay:10.37,2013-01-16 17:23:00,
2013-01-16 12:28:00,32.4,30.6,29.74,NNW,338,0.3,2.3,93,0.00,CLR,,0.00,WeatherDisplay:10.37,2013-01-16 17:28:00,
2013-01-16 12:33:00,32.4,30.6,29.76,NW,315,2.1,2.3,93,0.00,CLR,,0.00,WeatherDisplay:10.37,2013-01-16 17:33:00,
2013-01-16 12:38:00,32.4,30.6,29.74,NW,315,0.3,0.3,93,0.00,CLR,,0.00,WeatherDisplay:10.37,2013-01-16 17:38:00,
2013-01-16 12:43:00,32.4,30.6,29.75,NW,315,0.3,0.3,93,0.00,CLR,,0.00,WeatherDisplay:10.37,2013-01-16 17:43:00,
2013-01-16 12:48:00,32.4,30.6,29.76,NW,315,0.9,2.3,93,0.00,CLR,,0.00,WeatherDisplay:10.37,2013-01-16 17:48:00,
2013-01-16 12:53:00,32.4,30.6,29.74,NW,315,0.0,0.0,93,0.00,CLR,,0.00,WeatherDisplay:10.37,2013-01-16 17:53:00,
2013-01-16 12:58:00,32.4,30.6,29.75,NW,315,0.0,0.0,93,0.00,CLR,,0.00,WeatherDisplay:10.37,2013-01-16 17:58:00,
2013-01-16 13:03:00,32.4,30.6,29.76,NW,315,0.6,0.6,93,0.00,CLR,,0.00,WeatherDisplay:10.37,2013-01-16 18:03:00,
2013-01-16 13:08:00,32.5,30.7,29.76,West,270,0.9,1.1,93,0.00,CLR,,0.00,WeatherDisplay:10.37,2013-01-16 18:08:00,
2013-01-16 13:13:00,32.5,30.7,29.75,West,270,0.0,1.1,93,0.00,CLR,,0.00,WeatherDisplay:10.37,2013-01-16 18:13:00,
2013-01-16 13:18:00,32.7,30.9,29.75,WNW,292,0.6,3.5,93,0.00,CLR,,0.00,WeatherDisplay:10.37,2013-01-16 18:18:00,
2013-01-16 13:23:00,32.7,30.9,29.76,West,270,0.6,1.1,93,0.00,CLR,,0.00,WeatherDisplay:10.37,2013-01-16 18:23:00,
2013-01-16 13:28:00,32.7,30.9,29.76,WNW,292,3.4,3.4,93,0.00,CLR,,0.00,WeatherDisplay:10.37,2013-01-16 18:28:00,
2013-01-16 13:33:00,32.9,31.1,29.76,WSW,248,0.9,2.3,93,0.00,CLR,,0.00,WeatherDisplay:10.37,2013-01-16 18:33:00,
2013-01-16 13:38:00,32.9,31.1,29.77,WNW,292,1.2,2.3,93,0.00,CLR,,0.00,WeatherDisplay:10.37,2013-01-16 18:38:00,
2013-01-16 13:43:00,32.9,31.1,29.77,WSW,248,2.4,3.5,93,0.00,CLR,,0.00,WeatherDisplay:10.37,2013-01-16 18:43:00,
2013-01-16 13:48:00,32.9,31.1,29.77,West,270,2.4,2.4,93,0.00,CLR,,0.00,WeatherDisplay:10.37,2013-01-16 18:48:00,
2013-01-16 13:53:00,32.9,31.1,29.76,NW,315,1.5,2.3,93,0.00,CLR,,0.00,WeatherDisplay:10.37,2013-01-16 18:53:00,
2013-01-16 13:58:00,33.1,31.3,29.76,West,270,0.6,1.1,93,0.00,CLR,,0.00,WeatherDisplay:10.37,2013-01-16 18:58:00,
2013-01-16 14:03:00,32.9,31.1,29.77,West,270,2.4,2.4,93,0.01,RA,,0.01,WeatherDisplay:10.37,2013-01-16 19:03:00,
2013-01-16 14:08:00,33.1,31.3,29.77,WSW,248,2.1,3.5,93,0.01,RA,,0.01,WeatherDisplay:10.37,2013-01-16 19:08:00,
2013-01-16 14:13:00,32.9,31.1,29.79,WSW,248,1.8,1.8,93,0.01,CLR,,0.01,WeatherDisplay:10.37,2013-01-16 19:13:00,
2013-01-16 14:18:00,33.1,31.3,29.79,WSW,248,3.1,3.5,93,0.01,CLR,,0.01,WeatherDisplay:10.37,2013-01-16 19:18:00,
2013-01-16 14:23:00,33.1,31.3,29.79,WNW,292,3.1,3.1,93,0.01,CLR,,0.01,WeatherDisplay:10.37,2013-01-16 19:23:00,
2013-01-16 14:28:00,33.1,31.3,29.79,West,270,2.1,2.1,93,0.01,CLR,,0.01,WeatherDisplay:10.37,2013-01-16 19:28:00,
2013-01-16 14:33:00,33.1,31.3,29.78,WSW,248,0.6,1.1,93,0.01,CLR,,0.01,WeatherDisplay:10.37,2013-01-16 19:33:00,
2013-01-16 14:38:00,33.3,31.5,29.79,WSW,248,0.0,0.0,93,0.01,CLR,,0.01,WeatherDisplay:10.37,2013-01-16 19:38:00,
2013-01-16 14:43:00,33.3,31.5,29.78,WNW,292,0.6,2.3,93,0.01,CLR,,0.01,WeatherDisplay:10.37,2013-01-16 19:43:00,
2013-01-16 14:48:00,33.1,31.3,29.79,West,270,1.8,2.3,93,0.01,CLR,,0.01,WeatherDisplay:10.37,2013-01-16 19:48:00,
2013-01-16 14:53:00,33.3,31.5,29.78,West,270,0.0,1.1,93,0.01,CLR,,0.01,WeatherDisplay:10.37,2013-01-16 19:53:00,
2013-01-16 14:58:00,33.3,31.5,29.78,WSW,248,1.2,1.2,93,0.01,CLR,,0.01,WeatherDisplay:10.37,2013-01-16 19:58:00,
2013-01-16 15:03:00,33.3,31.5,29.79,West,270,1.2,2.3,93,0.00,CLR,,0.01,WeatherDisplay:10.37,2013-01-16 20:03:00,
2013-01-16 15:08:00,33.3,31.5,29.79,West,270,0.0,0.0,93,0.00,CLR,,0.01,WeatherDisplay:10.37,2013-01-16 20:08:00,
2013-01-16 15:13:00,33.4,31.6,29.78,West,270,0.0,0.0,93,0.00,CLR,,0.01,WeatherDisplay:10.37,2013-01-16 20:13:00,
2013-01-16 15:18:00,33.4,31.6,29.78,West,270,0.9,1.1,93,0.00,CLR,,0.01,WeatherDisplay:10.37,2013-01-16 20:18:00,
2013-01-16 15:23:00,33.4,31.6,29.78,WNW,292,0.9,1.1,93,0.00,CLR,,0.01,WeatherDisplay:10.37,2013-01-16 20:23:00,
2013-01-16 15:28:00,33.4,31.6,29.79,West,270,0.6,0.0,93,0.00,CLR,,0.01,WeatherDisplay:10.37,2013-01-16 20:28:00,
2013-01-16 15:33:00,33.4,31.6,29.79,West,270,1.5,1.5,93,0.00,CLR,,0.01,WeatherDisplay:10.37,2013-01-16 20:33:00,
2013-01-16 15:38:00,33.4,31.6,29.79,WNW,292,0.6,1.1,93,0.00,CLR,,0.01,WeatherDisplay:10.37,2013-01-16 20:38:00,
2013-01-16 15:43:00,33.4,31.6,29.80,West,270,2.4,2.4,93,0.00,CLR,,0.01,WeatherDisplay:10.37,2013-01-16 20:43:00,
2013-01-16 15:48:00,33.4,31.6,29.80,West,270,3.7,3.7,93,0.00,CLR,,0.01,WeatherDisplay:10.37,2013-01-16 20:48:00,
2013-01-16 15:53:00,33.4,31.6,29.79,West,270,0.3,1.1,93,0.00,CLR,,0.01,WeatherDisplay:10.37,2013-01-16 20:53:00,
2013-01-16 15:58:00,33.4,31.6,29.81,NW,315,2.1,2.3,93,0.00,CLR,,0.01,WeatherDisplay:10.37,2013-01-16 20:58:00,
2013-01-16 16:03:00,33.4,31.9,29.81,West,270,1.5,2.3,94,0.00,CLR,,0.01,WeatherDisplay:10.37,2013-01-16 21:03:00,
2013-01-16 16:08:00,33.4,31.9,29.81,West,270,1.2,2.3,94,0.00,CLR,,0.01,WeatherDisplay:10.37,2013-01-16 21:08:00,
2013-01-16 16:13:00,33.4,31.9,29.81,WNW,292,0.6,2.3,94,0.00,CLR,,0.01,WeatherDisplay:10.37,2013-01-16 21:13:00,
2013-01-16 16:18:00,33.4,31.9,29.82,WNW,292,0.9,2.3,94,0.00,CLR,,0.01,WeatherDisplay:10.37,2013-01-16 21:18:00,
2013-01-16 16:23:00,33.4,31.9,29.82,West,270,3.1,3.1,94,0.00,CLR,,0.01,WeatherDisplay:10.37,2013-01-16 21:23:00,
2013-01-16 16:28:00,33.4,31.9,29.82,WNW,292,0.6,2.3,94,0.00,CLR,,0.01,WeatherDisplay:10.37,2013-01-16 21:28:00,
2013-01-16 16:33:00,33.4,31.9,29.82,WNW,292,0.6,2.3,94,0.00,CLR,,0.01,WeatherDisplay:10.37,2013-01-16 21:33:00,
2013-01-16 16:38:00,33.4,31.9,29.82,West,270,1.8,1.8,94,0.00,CLR,,0.01,WeatherDisplay:10.37,2013-01-16 21:38:00,
2013-01-16 16:43:00,33.4,31.9,29.82,NW,315,0.3,1.1,94,0.00,CLR,,0.01,WeatherDisplay:10.37,2013-01-16 21:43:00,
2013-01-16 16:48:00,33.4,31.9,29.82,West,270,1.2,1.2,94,0.00,CLR,,0.01,WeatherDisplay:10.37,2013-01-16 21:48:00,
2013-01-16 16:53:00,33.4,31.9,29.81,NW,315,0.6,1.1,94,0.00,CLR,,0.01,WeatherDisplay:10.37,2013-01-16 21:53:00,
2013-01-16 16:58:00,33.4,31.9,29.82,NW,315,1.5,2.3,94,0.00,CLR,,0.01,WeatherDisplay:10.37,2013-01-16 21:58:00,
2013-01-16 17:03:00,33.4,31.9,29.82,NW,315,0.9,1.1,94,0.00,CLR,,0.01,WeatherDisplay:10.37,2013-01-16 22:03:00,
2013-01-16 17:08:00,33.4,31.9,29.82,West,270,1.8,2.3,94,0.00,CLR,,0.01,WeatherDisplay:10.37,2013-01-16 22:08:00,
2013-01-16 17:13:00,33.4,31.9,29.82,NNW,338,1.8,3.5,94,0.00,CLR,,0.01,WeatherDisplay:10.37,2013-01-16 22:13:00,
2013-01-16 17:18:00,33.4,31.9,29.83,NW,315,2.8,4.6,94,0.00,CLR,,0.01,WeatherDisplay:10.37,2013-01-16 22:18:00,
2013-01-16 17:23:00,33.4,31.9,29.83,NW,315,1.8,3.5,94,0.00,CLR,,0.01,WeatherDisplay:10.37,2013-01-16 22:23:00,
2013-01-16 17:28:00,33.3,31.7,29.84,West,270,0.6,2.3,94,0.00,CLR,,0.01,WeatherDisplay:10.37,2013-01-16 22:28:00,
2013-01-16 17:33:00,33.3,31.7,29.83,WNW,292,1.5,1.5,94,0.00,CLR,,0.01,WeatherDisplay:10.37,2013-01-16 22:33:00,
2013-01-16 17:38:00,33.3,31.7,29.83,West,270,1.5,1.5,94,0.00,CLR,,0.01,WeatherDisplay:10.37,2013-01-16 22:38:00,
2013-01-16 17:43:00,33.3,31.7,29.84,NNW,338,1.8,4.6,94,0.00,CLR,,0.01,WeatherDisplay:10.37,2013-01-16 22:43:00,
2013-01-16 17:48:00,33.3,31.7,29.84,West,270,1.8,2.3,94,0.00,CLR,,0.01,WeatherDisplay:10.37,2013-01-16 22:48:00,
2013-01-16 17:53:00,33.3,31.7,29.84,NNW,338,3.1,3.5,94,0.00,CLR,,0.01,WeatherDisplay:10.37,2013-01-16 22:53:00,
2013-01-16 17:58:00,33.3,31.7,29.83,WNW,292,2.8,3.5,94,0.00,CLR,,0.01,WeatherDisplay:10.37,2013-01-16 22:58:00,
2013-01-16 18:03:00,33.1,31.5,29.84,WNW,292,1.5,4.6,94,0.00,CLR,,0.01,WeatherDisplay:10.37,2013-01-16 23:03:00,
2013-01-16 18:08:00,32.9,31.4,29.84,NW,315,7.8,7.8,94,0.00,CLR,,0.01,WeatherDisplay:10.37,2013-01-16 23:08:00,
2013-01-16 18:13:00,32.9,31.4,29.84,West,270,5.2,5.2,94,0.00,CLR,,0.01,WeatherDisplay:10.37,2013-01-16 23:13:00,
2013-01-16 18:18:00,32.7,31.2,29.84,West,270,3.7,3.7,94,0.00,CLR,,0.01,WeatherDisplay:10.37,2013-01-16 23:18:00,
2013-01-16 18:23:00,32.7,31.2,29.85,West,270,0.9,2.3,94,0.00,CLR,,0.01,WeatherDisplay:10.37,2013-01-16 23:23:00,
2013-01-16 18:28:00,32.7,30.9,29.86,West,270,1.2,2.3,93,0.00,CLR,,0.01,WeatherDisplay:10.37,2013-01-16 23:28:00,
2013-01-16 18:33:00,32.7,30.9,29.86,NW,315,2.5,2.5,93,0.00,CLR,,0.01,WeatherDisplay:10.37,2013-01-16 23:33:00,
2013-01-16 18:38:00,32.7,30.9,29.85,NW,315,0.9,4.6,93,0.00,CLR,,0.01,WeatherDisplay:10.37,2013-01-16 23:38:00,
2013-01-16 18:43:00,32.5,30.7,29.85,West,270,4.6,5.8,93,0.00,CLR,,0.01,WeatherDisplay:10.37,2013-01-16 23:43:00,
2013-01-16 18:48:00,32.5,30.5,29.86,West,270,1.5,1.5,92,0.00,CLR,,0.01,WeatherDisplay:10.37,2013-01-16 23:48:00,
2013-01-16 18:53:00,32.5,30.5,29.86,West,270,1.8,2.3,92,0.00,CLR,,0.01,WeatherDisplay:10.37,2013-01-16 23:53:00,
2013-01-16 18:58:00,32.5,30.5,29.86,West,270,1.8,2.3,92,0.00,CLR,,0.01,WeatherDisplay:10.37,2013-01-16 23:58:00,
2013-01-16 19:03:00,32.5,30.5,29.86,West,270,0.9,1.1,92,0.00,CLR,,0.01,WeatherDisplay:10.37,2013-01-17 00:03:00,
2013-01-16 19:08:00,32.4,30.3,29.86,West,270,1.2,3.5,92,0.00,CLR,,0.01,WeatherDisplay:10.37,2013-01-17 00:08:00,
2013-01-16 19:13:00,32.4,30.3,29.86,West,270,2.4,3.5,92,0.00,CLR,,0.01,WeatherDisplay:10.37,2013-01-17 00:13:00,
2013-01-16 19:18:00,32.4,30.3,29.86,West,270,1.2,1.2,92,0.00,CLR,,0.01,WeatherDisplay:10.37,2013-01-17 00:18:00,
2013-01-16 19:23:00,32.4,30.3,29.86,West,270,0.0,1.1,92,0.00,CLR,,0.01,WeatherDisplay:10.37,2013-01-17 00:23:00,
2013-01-16 19:28:00,32.4,30.0,29.87,West,270,1.8,2.3,91,0.00,CLR,,0.01,WeatherDisplay:10.37,2013-01-17 00:28:00,
2013-01-16 19:33:00,32.4,29.8,29.87,West,270,1.8,1.8,90,0.00,CLR,,0.01,WeatherDisplay:10.37,2013-01-17 00:33:00,
2013-01-16 19:38:00,32.4,29.8,29.87,West,270,2.4,2.4,90,0.00,CLR,,0.01,WeatherDisplay:10.37,2013-01-17 00:38:00,
2013-01-16 19:43:00,32.4,29.5,29.87,West,270,0.9,2.3,89,0.00,CLR,,0.01,WeatherDisplay:10.37,2013-01-17 00:43:00,
2013-01-16 19:48:00,32.4,29.8,29.87,West,270,1.5,1.5,90,0.00,CLR,,0.01,WeatherDisplay:10.37,2013-01-17 00:48:00,
2013-01-16 19:53:00,32.4,29.5,29.86,West,270,0.6,1.1,89,0.00,CLR,,0.01,WeatherDisplay:10.37,2013-01-17 00:53:00,
2013-01-16 19:58:00,32.4,29.2,29.87,West,270,2.4,2.4,88,0.00,CLR,,0.01,WeatherDisplay:10.37,2013-01-17 00:58:00,
2013-01-16 20:03:00,32.4,29.2,29.87,West,270,0.9,2.3,88,0.00,CLR,,0.01,WeatherDisplay:10.37,2013-01-17 01:03:00,
2013-01-16 20:08:00,32.4,28.6,29.87,West,270,0.0,2.3,86,0.00,CLR,,0.01,WeatherDisplay:10.37,2013-01-17 01:08:00,
2013-01-16 20:13:00,32.4,28.6,29.87,West,270,2.8,2.8,86,0.00,CLR,,0.01,WeatherDisplay:10.37,2013-01-17 01:13:00,
2013-01-16 20:18:00,32.4,28.6,29.87,West,270,1.8,2.3,86,0.00,CLR,,0.01,WeatherDisplay:10.37,2013-01-17 01:18:00,
2013-01-16 20:23:00,32.4,28.1,29.86,West,270,0.3,2.3,84,0.00,CLR,,0.01,WeatherDisplay:10.37,2013-01-17 01:23:00,
2013-01-16 20:28:00,32.2,27.9,29.86,West,270,4.0,4.0,84,0.00,CLR,,0.01,WeatherDisplay:10.37,2013-01-17 01:28:00,
2013-01-16 20:33:00,32.2,27.6,29.86,West,270,3.7,3.7,83,0.00,CLR,,0.01,WeatherDisplay:10.37,2013-01-17 01:33:00,
2013-01-16 20:38:00,32.2,27.6,29.86,West,270,0.6,2.3,83,0.00,CLR,,0.01,WeatherDisplay:10.37,2013-01-17 01:38:00,
2013-01-16 20:43:00,32.2,27.0,29.86,West,270,0.6,3.5,81,0.00,CLR,,0.01,WeatherDisplay:10.37,2013-01-17 01:43:00,
2013-01-16 20:48:00,32.2,27.3,29.86,West,270,0.9,2.3,82,0.00,CLR,,0.01,WeatherDisplay:10.37,2013-01-17 01:48:00,
2013-01-16 20:53:00,32.2,27.3,29.86,West,270,1.5,2.3,82,0.00,CLR,,0.01,WeatherDisplay:10.37,2013-01-17 01:53:00,
2013-01-16 20:58:00,32.0,26.8,29.86,West,270,3.7,3.7,81,0.00,CLR,,0.01,WeatherDisplay:10.37,2013-01-17 01:58:00,
2013-01-16 21:03:00,32.2,27.0,29.86,West,270,1.8,1.8,81,0.00,CLR,,0.01,WeatherDisplay:10.37,2013-01-17 02:03:00,
2013-01-16 21:08:00,32.0,26.8,29.86,West,270,2.1,4.6,81,0.00,CLR,,0.01,WeatherDisplay:10.37,2013-01-17 02:08:00,
2013-01-16 21:13:00,32.0,26.5,29.86,West,270,0.3,2.3,80,0.00,CLR,,0.01,WeatherDisplay:10.37,2013-01-17 02:13:00,
2013-01-16 21:18:00,32.0,26.5,29.86,West,270,3.1,3.1,80,0.00,CLR,,0.01,WeatherDisplay:10.37,2013-01-17 02:18:00,
2013-01-16 21:23:00,32.0,25.9,29.86,West,270,2.4,5.8,78,0.00,CLR,,0.01,WeatherDisplay:10.37,2013-01-17 02:23:00,
2013-01-16 21:28:00,32.2,26.1,29.86,West,270,2.8,5.8,78,0.00,CLR,,0.01,WeatherDisplay:10.37,2013-01-17 02:28:00,
2013-01-16 21:33:00,32.0,25.6,29.87,West,270,4.3,4.6,77,0.00,CLR,,0.01,WeatherDisplay:10.37,2013-01-17 02:33:00,
2013-01-16 21:38:00,32.0,25.6,29.87,West,270,1.5,3.5,77,0.00,CLR,,0.01,WeatherDisplay:10.37,2013-01-17 02:38:00,
2013-01-16 21:43:00,32.0,25.9,29.87,West,270,1.5,3.5,78,0.00,CLR,,0.01,WeatherDisplay:10.37,2013-01-17 02:43:00,
2013-01-16 21:48:00,32.0,25.6,29.87,West,270,4.3,4.6,77,0.00,CLR,,0.01,WeatherDisplay:10.37,2013-01-17 02:48:00,
2013-01-16 21:53:00,32.0,25.9,29.87,West,270,1.2,2.3,78,0.00,CLR,,0.01,WeatherDisplay:10.37,2013-01-17 02:53:00,
2013-01-16 21:58:00,32.0,25.9,29.87,West,270,3.7,4.6,78,0.00,CLR,,0.01,WeatherDisplay:10.37,2013-01-17 02:58:00,
2013-01-16 22:03:00,32.0,25.6,29.87,West,270,1.5,3.5,77,0.00,CLR,,0.01,WeatherDisplay:10.37,2013-01-17 03:03:00,
2013-01-16 22:08:00,32.0,25.3,29.87,West,270,3.7,5.8,76,0.00,CLR,,0.01,WeatherDisplay:10.37,2013-01-17 03:08:00,
2013-01-16 22:13:00,32.0,25.3,29.87,West,270,2.5,2.5,76,0.00,CLR,,0.01,WeatherDisplay:10.37,2013-01-17 03:13:00,
2013-01-16 22:18:00,32.0,25.3,29.87,West,270,7.0,8.1,76,0.00,CLR,,0.01,WeatherDisplay:10.37,2013-01-17 03:18:00,
2013-01-16 22:23:00,32.0,25.3,29.87,West,270,6.1,6.1,76,0.00,CLR,,0.01,WeatherDisplay:10.37,2013-01-17 03:23:00,
2013-01-16 22:28:00,32.0,25.3,29.87,West,270,8.1,10.4,76,0.00,CLR,,0.01,WeatherDisplay:10.37,2013-01-17 03:28:00,
2013-01-16 22:33:00,32.0,25.3,29.87,West,270,4.3,5.8,76,0.00,CLR,,0.01,WeatherDisplay:10.37,2013-01-17 03:33:00,
2013-01-16 22:38:00,32.0,25.3,29.87,West,270,1.5,2.3,76,0.00,CLR,,0.01,WeatherDisplay:10.37,2013-01-17 03:38:00,
2013-01-16 22:43:00,32.0,25.3,29.87,West,270,5.2,5.8,76,0.00,CLR,,0.01,WeatherDisplay:10.37,2013-01-17 03:43:00,
2013-01-16 22:48:00,32.0,25.3,29.87,West,270,7.0,7.0,76,0.00,CLR,,0.01,WeatherDisplay:10.37,2013-01-17 03:48:00,
2013-01-16 22:53:00,32.0,25.3,29.87,West,270,7.3,7.3,76,0.00,CLR,,0.01,WeatherDisplay:10.37,2013-01-17 03:53:00,
2013-01-16 22:58:00,32.0,25.3,29.87,West,270,4.3,4.6,76,0.00,CLR,,0.01,WeatherDisplay:10.37,2013-01-17 03:58:00,
2013-01-16 23:03:00,32.0,25.0,29.87,West,270,3.1,3.5,75,0.00,CLR,,0.01,WeatherDisplay:10.37,2013-01-17 04:03:00,
2013-01-16 23:08:00,32.0,25.0,29.87,West,270,4.9,5.8,75,0.00,CLR,,0.01,WeatherDisplay:10.37,2013-01-17 04:08:00,
2013-01-16 23:13:00,32.0,25.0,29.87,West,270,5.2,5.8,75,0.00,CLR,,0.01,WeatherDisplay:10.37,2013-01-17 04:13:00,
2013-01-16 23:18:00,32.0,25.0,29.87,West,270,2.4,5.8,75,0.00,CLR,,0.01,WeatherDisplay:10.37,2013-01-17 04:18:00,
2013-01-16 23:23:00,32.0,24.6,29.87,West,270,4.3,6.9,74,0.00,CLR,,0.01,WeatherDisplay:10.37,2013-01-17 04:23:00,
2013-01-16 23:28:00,32.0,24.6,29.87,West,270,3.1,3.1,74,0.00,CLR,,0.01,WeatherDisplay:10.37,2013-01-17 04:28:00,
2013-01-16 23:33:00,31.8,24.8,29.87,West,270,2.4,4.6,75,0.00,CLR,,0.01,WeatherDisplay:10.37,2013-01-17 04:33:00,
2013-01-16 23:38:00,32.0,24.6,29.87,West,270,5.2,5.8,74,0.00,CLR,,0.01,WeatherDisplay:10.37,2013-01-17 04:38:00,
2013-01-16 23:43:00,31.8,24.5,29.87,West,270,8.4,8.4,74,0.00,CLR,,0.01,WeatherDisplay:10.37,2013-01-17 04:43:00,
2013-01-16 23:48:00,31.8,24.8,29.87,West,270,1.5,1.5,75,0.00,CLR,,0.01,WeatherDisplay:10.37,2013-01-17 04:48:00,
2013-01-16 23:53:00,31.6,24.3,29.87,West,270,4.3,4.6,74,0.00,CLR,,0.01,WeatherDisplay:10.37,2013-01-17 04:53:00,
2013-01-16 23:58:00,31.6,24.3,29.87,West,270,1.8,2.3,74,0.00,CLR,,0.01,WeatherDisplay:10.37,2013-01-17 04:58:00,